Weather in Verkhnyaya Ekon

Russia / Khabarovsk Krai     50°25′24″N   137°04′56″E
temp.,
°C
wind,
m/s
gust,
m/s
humid.,
%
clouds,
%
prec.,
mm/h
press.,
hPa
HPBL,
m
26 july, mon
mon2601:00+24sse2378100 0.0 100459
04:00+23s2682100 0.0 1004197
07:00+23sse2679100 0.0 1005222
10:00+28s4660100 0.0 1005572
13:00+31s5746100 0.0 10041167
16:00+31ssw685399 0.0 10031177
19:00+27s2367100 0.0 100270
22:00+20n3695100 0.6 1004154
27 july, tue
tue2701:00+20n369723 0.0 1004190
04:00+19n2498100 0.0 1004122
07:00+20n2295100 0.2 1005124
10:00+23n5584100 0.6 1005546
13:00+27n666377 0.2 1005903
16:00+28n56569 0.3 1005997
19:00+27n456169 0.0 1004801
22:00+21n3587100 0.4 100591
28 july, wed
wed2801:00+21n3588100 0.0 1004100
04:00+20n2389100 0.0 100367
07:00+22nne24855 0.0 1004178
10:00+28e11592 0.0 1003692
13:00+31s33501 0.0 10001142
16:00+34s55446 0.0 9981450
19:00+30s255833 0.0 998278
22:00+23n229261 0.4 99933
29 july, thu
thu2901:00+23n119478 0.3 99813
04:00+22nne119798 1.7 99815
07:00+22sse129699 1.0 99899
10:00+24se1191100 1.3 998240
13:00+30s566189 0.1 9971004
16:00+31sse4557100 0.2 9951099
19:00+29se3568100 0.1 994317
22:00+24sse119299 0.6 99514
30 july, fri
fri3001:00+22sse2296100 1.2 99539
04:00+20n1299100 3.9 99555
07:00+20n3795100 0.4 996291
10:00+21n5784100 0.6 997449
13:00+19n4792100 1.1 998364
16:00+22nne457918 1.4 997501
19:00+23n458311 1.3 997514
22:00+18n35976 1.6 998145